CTV459 WAYY-WAJJ

Flight info

Callsign CTV459
Flight time 0h 56m
Altitude 31000
Route OVGOD T17 ANLEP
Aircraft A320/M-SDE3FGHIRWY/LB1

Departure

Time 2026-04-19 08:43
Airport Mozes Kilangin Airport (WAYY)

Arrival

Time 2026-04-19 09:40
Airport Dortheys Hiyo Eluay International Airport (WAJJ)
Time Latitude Longitude Altitude Speed Heading
2026-04-19 08:27 -4.52948 136.88226 91 ft 0 kts 210°
2026-04-19 08:33 -4.52936 136.88233 94 ft 3 kts 210°
2026-04-19 08:34 -4.52918 136.88243 97 ft 3 kts 208°
2026-04-19 08:34 -4.52900 136.88252 96 ft 3 kts 195°
2026-04-19 08:34 -4.52886 136.88254 95 ft 2 kts 153°
2026-04-19 08:34 -4.52877 136.88248 95 ft 2 kts 127°
2026-04-19 08:35 -4.52870 136.88239 95 ft 2 kts 123°
2026-04-19 08:35 -4.52867 136.88234 94 ft 0 kts 123°
2026-04-19 08:37 -4.52868 136.88236 94 ft 1 kts 123°
2026-04-19 08:38 -4.52876 136.88248 96 ft 3 kts 122°
2026-04-19 08:38 -4.52891 136.88272 97 ft 5 kts 122°
2026-04-19 08:38 -4.52914 136.88309 98 ft 7 kts 122°
2026-04-19 08:38 -4.52940 136.88355 96 ft 8 kts 106°
2026-04-19 08:39 -4.52908 136.88401 98 ft 9 kts 33°
2026-04-19 08:39 -4.52847 136.88440 96 ft 10 kts 32°
2026-04-19 08:39 -4.52824 136.88504 96 ft 12 kts 112°
2026-04-19 08:39 -4.52871 136.88582 97 ft 15 kts 122°
2026-04-19 08:40 -4.52929 136.88676 97 ft 17 kts 121°
2026-04-19 08:40 -4.52999 136.88787 97 ft 21 kts 122°
2026-04-19 08:40 -4.53082 136.88922 96 ft 24 kts 122°
2026-04-19 08:40 -4.53174 136.89068 96 ft 26 kts 122°
2026-04-19 08:41 -4.53271 136.89225 97 ft 27 kts 122°
2026-04-19 08:41 -4.53372 136.89388 98 ft 27 kts 121°
2026-04-19 08:41 -4.53460 136.89530 98 ft 16 kts 121°
2026-04-19 08:41 -4.53486 136.89609 99 ft 11 kts 87°
2026-04-19 08:42 -4.53517 136.89650 98 ft 9 kts 210°
2026-04-19 08:42 -4.53498 136.89590 99 ft 11 kts 306°
2026-04-19 08:42 -4.53434 136.89488 97 ft 37 kts 302°
2026-04-19 08:42 -4.53172 136.89067 97 ft 104 kts 302°
2026-04-19 08:43 -4.52694 136.88298 117 ft 151 kts 302°
2026-04-19 08:43 -4.52107 136.87403 546 ft 157 kts 303°
2026-04-19 08:43 -4.51479 136.86445 1061 ft 166 kts 303°
2026-04-19 08:43 -4.50842 136.85448 1668 ft 170 kts 301°
2026-04-19 08:44 -4.50216 136.84422 2169 ft 180 kts 300°
2026-04-19 08:44 -4.49527 136.83281 2401 ft 202 kts 300°
2026-04-19 08:44 -4.48755 136.82002 2617 ft 227 kts 300°
2026-04-19 08:44 -4.47888 136.80576 2984 ft 252 kts 301°
2026-04-19 08:45 -4.46943 136.79030 3558 ft 267 kts 301°
2026-04-19 08:45 -4.45958 136.77430 4387 ft 272 kts 301°
2026-04-19 08:45 -4.44996 136.75779 5208 ft 276 kts 292°
2026-04-19 08:45 -4.44651 136.73894 6001 ft 279 kts 265°
2026-04-19 08:46 -4.45167 136.72024 6771 ft 281 kts 240°
2026-04-19 08:46 -4.46420 136.70527 7508 ft 284 kts 216°
2026-04-19 08:46 -4.48201 136.69681 8254 ft 287 kts 191°
2026-04-19 08:46 -4.50224 136.69690 8978 ft 291 kts 165°
2026-04-19 08:47 -4.52061 136.70546 9702 ft 295 kts 148°
2026-04-19 08:47 -4.53821 136.71639 10280 ft 303 kts 148°
2026-04-19 08:47 -4.55675 136.72797 10461 ft 326 kts 147°
2026-04-19 08:47 -4.57665 136.74040 10597 ft 347 kts 147°
2026-04-19 08:48 -4.59723 136.75320 11023 ft 356 kts 148°
2026-04-19 08:48 -4.61838 136.76630 11597 ft 360 kts 148°
2026-04-19 08:48 -4.63974 136.77969 12204 ft 363 kts 144°
2026-04-19 08:48 -4.65780 136.79730 12772 ft 365 kts 123°
2026-04-19 08:49 -4.66829 136.82037 13356 ft 367 kts 102°
2026-04-19 08:49 -4.66953 136.84575 13908 ft 368 kts 81°
2026-04-19 08:49 -4.66138 136.86991 14430 ft 369 kts 60°
2026-04-19 08:49 -4.64784 136.89189 14962 ft 371 kts 57°
2026-04-19 08:50 -4.63395 136.91382 15497 ft 373 kts 57°
2026-04-19 08:50 -4.61999 136.93579 16025 ft 376 kts 57°
2026-04-19 08:50 -4.60587 136.95806 16557 ft 379 kts 57°
2026-04-19 08:50 -4.59178 136.98040 17088 ft 381 kts 57°
2026-04-19 08:51 -4.57759 137.00294 17624 ft 384 kts 58°
2026-04-19 08:51 -4.56347 137.02536 18161 ft 386 kts 58°
2026-04-19 08:51 -4.54909 137.04818 18619 ft 389 kts 58°
2026-04-19 08:51 -4.53459 137.07118 19091 ft 391 kts 58°
2026-04-19 08:52 -4.52002 137.09430 19545 ft 394 kts 58°
2026-04-19 08:52 -4.50532 137.11765 20017 ft 397 kts 58°
2026-04-19 08:52 -4.49057 137.14110 20485 ft 400 kts 58°
2026-04-19 08:52 -4.47569 137.16476 20948 ft 403 kts 58°
2026-04-19 08:53 -4.46069 137.18858 21390 ft 406 kts 58°
2026-04-19 08:53 -4.44549 137.21267 21977 ft 411 kts 58°
2026-04-19 08:53 -4.43016 137.23692 22649 ft 414 kts 58°
2026-04-19 08:53 -4.41475 137.26132 23116 ft 416 kts 58°
2026-04-19 08:54 -4.39921 137.28596 23505 ft 419 kts 58°
2026-04-19 08:54 -4.38361 137.31073 23837 ft 421 kts 58°
2026-04-19 08:54 -4.36799 137.33553 24155 ft 423 kts 58°
2026-04-19 08:54 -4.35220 137.36053 24491 ft 425 kts 58°
2026-04-19 08:55 -4.33638 137.38554 24820 ft 426 kts 58°
2026-04-19 08:55 -4.32070 137.41036 25116 ft 428 kts 58°
2026-04-19 08:55 -4.30475 137.43565 25433 ft 430 kts 58°
2026-04-19 08:55 -4.28878 137.46098 25755 ft 431 kts 58°
2026-04-19 08:56 -4.27273 137.48644 26067 ft 433 kts 58°
2026-04-19 08:56 -4.25663 137.51194 26344 ft 435 kts 58°
2026-04-19 08:56 -4.24040 137.53764 26621 ft 436 kts 58°
2026-04-19 08:56 -4.22417 137.56336 26914 ft 438 kts 58°
2026-04-19 08:57 -4.20788 137.58923 27194 ft 440 kts 58°
2026-04-19 08:57 -4.19149 137.61526 27468 ft 442 kts 58°
2026-04-19 08:57 -4.17506 137.64132 27750 ft 443 kts 58°
2026-04-19 08:57 -4.15854 137.66747 28026 ft 445 kts 58°
2026-04-19 08:58 -4.14195 137.69371 28315 ft 447 kts 58°
2026-04-19 08:58 -4.12528 137.72009 28597 ft 449 kts 58°
2026-04-19 08:58 -4.10854 137.74656 28883 ft 450 kts 58°
2026-04-19 08:58 -4.09178 137.77307 29154 ft 452 kts 58°
2026-04-19 08:59 -4.07496 137.79970 29506 ft 452 kts 58°
2026-04-19 08:59 -4.05822 137.82622 29954 ft 450 kts 58°
2026-04-19 08:59 -4.04149 137.85267 30326 ft 449 kts 58°
2026-04-19 08:59 -4.02479 137.87907 30666 ft 448 kts 58°
2026-04-19 09:00 -4.00811 137.90540 30970 ft 448 kts 58°
2026-04-19 09:00 -3.99146 137.93173 31052 ft 447 kts 58°
2026-04-19 09:00 -3.95835 137.98438 31073 ft 446 kts 61°
2026-04-19 09:01 -3.93020 138.03972 31077 ft 446 kts 64°
2026-04-19 09:01 -3.90251 138.09513 31077 ft 446 kts 64°
2026-04-19 09:02 -3.87477 138.15074 31074 ft 445 kts 64°
2026-04-19 09:02 -3.84703 138.20616 31072 ft 445 kts 64°
2026-04-19 09:03 -3.81927 138.26157 31070 ft 445 kts 64°
2026-04-19 09:03 -3.79158 138.31701 31072 ft 445 kts 64°
2026-04-19 09:04 -3.76392 138.37237 31062 ft 445 kts 64°
2026-04-19 09:04 -3.73622 138.42767 31052 ft 445 kts 64°
2026-04-19 09:05 -3.70841 138.48305 31040 ft 445 kts 64°
2026-04-19 09:05 -3.68516 138.52954 31032 ft 445 kts 64°
2026-04-19 09:06 -3.65742 138.58504 31029 ft 445 kts 64°
2026-04-19 09:06 -3.62969 138.64051 30930 ft 446 kts 64°
2026-04-19 09:07 -3.61584 138.66816 30685 ft 445 kts 64°
2026-04-19 09:07 -3.60189 138.69592 30459 ft 446 kts 64°
2026-04-19 09:07 -3.58794 138.72367 30231 ft 447 kts 64°
2026-04-19 09:07 -3.57402 138.75147 29990 ft 447 kts 64°
2026-04-19 09:08 -3.56009 138.77934 29715 ft 448 kts 64°
2026-04-19 09:08 -3.54615 138.80726 29446 ft 448 kts 64°
2026-04-19 09:08 -3.53218 138.83515 29180 ft 448 kts 64°
2026-04-19 09:08 -3.51822 138.86295 28915 ft 446 kts 64°
2026-04-19 09:09 -3.50434 138.89062 28645 ft 444 kts 64°
2026-04-19 09:09 -3.49067 138.91787 28391 ft 443 kts 64°
2026-04-19 09:09 -3.47688 138.94540 28127 ft 442 kts 64°
2026-04-19 09:09 -3.46310 138.97292 27868 ft 441 kts 64°
2026-04-19 09:10 -3.44938 139.00025 27617 ft 440 kts 64°
2026-04-19 09:10 -3.43567 139.02759 27365 ft 439 kts 64°
2026-04-19 09:10 -3.42197 139.05488 27114 ft 437 kts 64°
2026-04-19 09:10 -3.40831 139.08192 26863 ft 436 kts 63°
2026-04-19 09:11 -3.39391 139.10865 26619 ft 434 kts 61°
2026-04-19 09:11 -3.37895 139.13485 26376 ft 433 kts 60°
2026-04-19 09:11 -3.36361 139.16078 26133 ft 432 kts 59°
2026-04-19 09:11 -3.34820 139.18651 25897 ft 431 kts 59°
2026-04-19 09:12 -3.33285 139.21223 25657 ft 429 kts 59°
2026-04-19 09:12 -3.31771 139.23791 25421 ft 428 kts 59°
2026-04-19 09:12 -3.30276 139.26362 25194 ft 427 kts 60°
2026-04-19 09:12 -3.28796 139.28936 24969 ft 426 kts 60°
2026-04-19 09:13 -3.27326 139.31499 24736 ft 425 kts 60°
2026-04-19 09:13 -3.25856 139.34064 24507 ft 423 kts 60°
2026-04-19 09:13 -3.24394 139.36614 24289 ft 422 kts 59°
2026-04-19 09:13 -3.22926 139.39160 24071 ft 422 kts 59°
2026-04-19 09:14 -3.21464 139.41690 23854 ft 420 kts 59°
2026-04-19 09:14 -3.20000 139.44218 23635 ft 420 kts 59°
2026-04-19 09:14 -3.18532 139.46747 23421 ft 419 kts 59°
2026-04-19 09:14 -3.17074 139.49260 23163 ft 417 kts 59°
2026-04-19 09:15 -3.15621 139.51774 22907 ft 416 kts 59°
2026-04-19 09:15 -3.14180 139.54272 22656 ft 414 kts 59°
2026-04-19 09:15 -3.11318 139.59243 22159 ft 411 kts 59°
2026-04-19 09:16 -3.09891 139.61715 21910 ft 409 kts 59°
2026-04-19 09:16 -3.08467 139.64176 21667 ft 407 kts 59°
2026-04-19 09:16 -3.07052 139.66622 21421 ft 406 kts 59°
2026-04-19 09:16 -3.05639 139.69064 21180 ft 404 kts 59°
2026-04-19 09:17 -3.04233 139.71491 20943 ft 402 kts 59°
2026-04-19 09:17 -3.02834 139.73905 20704 ft 401 kts 59°
2026-04-19 09:17 -3.01441 139.76312 20465 ft 399 kts 59°
2026-04-19 09:17 -3.00069 139.78683 20240 ft 398 kts 59°
2026-04-19 09:18 -2.98690 139.81069 20016 ft 396 kts 59°
2026-04-19 09:18 -2.97317 139.83449 19776 ft 394 kts 59°
2026-04-19 09:18 -2.95951 139.85817 19552 ft 392 kts 59°
2026-04-19 09:18 -2.94589 139.88176 19327 ft 391 kts 59°
2026-04-19 09:19 -2.93227 139.90531 19099 ft 390 kts 59°
2026-04-19 09:19 -2.91871 139.92874 18875 ft 388 kts 59°
2026-04-19 09:19 -2.90518 139.95206 18652 ft 387 kts 59°
2026-04-19 09:19 -2.89170 139.97529 18431 ft 386 kts 60°
2026-04-19 09:20 -2.87823 139.99851 18213 ft 385 kts 60°
2026-04-19 09:20 -2.86483 140.02164 17963 ft 383 kts 60°
2026-04-19 09:20 -2.85152 140.04469 17709 ft 382 kts 60°
2026-04-19 09:20 -2.83830 140.06760 17454 ft 380 kts 60°
2026-04-19 09:21 -2.82514 140.09042 17207 ft 378 kts 60°
2026-04-19 09:21 -2.81201 140.11316 16955 ft 377 kts 60°
2026-04-19 09:21 -2.79907 140.13549 16677 ft 375 kts 60°
2026-04-19 09:21 -2.78603 140.15799 16141 ft 374 kts 60°
2026-04-19 09:22 -2.77303 140.18043 15591 ft 371 kts 60°
2026-04-19 09:22 -2.76011 140.20271 15119 ft 367 kts 60°
2026-04-19 09:22 -2.74738 140.22467 14610 ft 364 kts 60°
2026-04-19 09:22 -2.73456 140.24679 14041 ft 362 kts 60°
2026-04-19 09:23 -2.72198 140.26851 13457 ft 361 kts 60°
2026-04-19 09:23 -2.70960 140.28994 12880 ft 359 kts 60°
2026-04-19 09:23 -2.69713 140.31150 12285 ft 357 kts 60°
2026-04-19 09:23 -2.68475 140.33289 11731 ft 354 kts 60°
2026-04-19 09:24 -2.67246 140.35411 11193 ft 351 kts 60°
2026-04-19 09:24 -2.66029 140.37515 10681 ft 348 kts 60°
2026-04-19 09:24 -2.64835 140.39576 10510 ft 325 kts 60°
2026-04-19 09:24 -2.63749 140.41451 10385 ft 300 kts 60°
2026-04-19 09:25 -2.62727 140.43212 10003 ft 288 kts 60°
2026-04-19 09:25 -2.61741 140.44912 9798 ft 278 kts 60°
2026-04-19 09:25 -2.60759 140.46610 9676 ft 282 kts 60°
2026-04-19 09:25 -2.59777 140.48308 9551 ft 282 kts 60°
2026-04-19 09:26 -2.58985 140.50077 9391 ft 277 kts 76°
2026-04-19 09:26 -2.58858 140.51928 9068 ft 266 kts 97°
2026-04-19 09:26 -2.59388 140.53665 8711 ft 259 kts 116°
2026-04-19 09:26 -2.60394 140.55128 8362 ft 252 kts 124°
2026-04-19 09:27 -2.61427 140.56507 8026 ft 246 kts 124°
2026-04-19 09:27 -2.62468 140.57907 7679 ft 248 kts 124°
2026-04-19 09:27 -2.63483 140.59278 7341 ft 250 kts 124°
2026-04-19 09:27 -2.64520 140.60682 6997 ft 252 kts 124°
2026-04-19 09:28 -2.65564 140.62094 6643 ft 251 kts 124°
2026-04-19 09:28 -2.66590 140.63480 6308 ft 245 kts 124°
2026-04-19 09:28 -2.67591 140.64833 5951 ft 240 kts 124°
2026-04-19 09:28 -2.68570 140.66155 5618 ft 233 kts 124°
2026-04-19 09:29 -2.69523 140.67443 5292 ft 227 kts 124°
2026-04-19 09:29 -2.70463 140.68714 4852 ft 226 kts 124°
2026-04-19 09:29 -2.71379 140.69951 4638 ft 215 kts 124°
2026-04-19 09:29 -2.72241 140.71113 4483 ft 201 kts 124°
2026-04-19 09:30 -2.73059 140.72216 4361 ft 195 kts 123°
2026-04-19 09:30 -2.73786 140.73348 4265 ft 193 kts 105°
2026-04-19 09:30 -2.73678 140.74647 4231 ft 195 kts 60°
2026-04-19 09:30 -2.72628 140.75480 4016 ft 200 kts 15°
2026-04-19 09:31 -2.71253 140.75285 3778 ft 209 kts 329°
2026-04-19 09:31 -2.70365 140.74108 3528 ft 217 kts 285°
2026-04-19 09:31 -2.70088 140.72627 3385 ft 217 kts 279°
2026-04-19 09:31 -2.69838 140.71142 3265 ft 216 kts 279°
2026-04-19 09:32 -2.69589 140.69655 3141 ft 217 kts 279°
2026-04-19 09:32 -2.69340 140.68172 3019 ft 215 kts 280°
2026-04-19 09:32 -2.68919 140.66748 2908 ft 214 kts 302°
2026-04-19 09:32 -2.68069 140.65560 2796 ft 213 kts 310°
2026-04-19 09:33 -2.67204 140.64409 2731 ft 199 kts 310°
2026-04-19 09:33 -2.66393 140.63329 2676 ft 193 kts 309°
2026-04-19 09:33 -2.65582 140.62256 2625 ft 194 kts 307°
2026-04-19 09:33 -2.65032 140.61023 2570 ft 196 kts 283°
2026-04-19 09:34 -2.64802 140.59705 2507 ft 191 kts 277°
2026-04-19 09:34 -2.64629 140.58388 2384 ft 188 kts 277°
2026-04-19 09:34 -2.64479 140.57145 2262 ft 166 kts 276°
2026-04-19 09:34 -2.64347 140.56057 2057 ft 157 kts 277°
2026-04-19 09:35 -2.64219 140.54987 1832 ft 153 kts 276°
2026-04-19 09:35 -2.64078 140.53927 1621 ft 154 kts 276°
2026-04-19 09:35 -2.63934 140.52868 1532 ft 151 kts 277°
2026-04-19 09:35 -2.63756 140.51841 1492 ft 155 kts 290°
2026-04-19 09:36 -2.63274 140.50873 1514 ft 156 kts 301°
2026-04-19 09:36 -2.62721 140.49964 1507 ft 152 kts 302°
2026-04-19 09:36 -2.62159 140.49059 1502 ft 154 kts 302°
2026-04-19 09:36 -2.61579 140.48156 1506 ft 154 kts 302°
2026-04-19 09:37 -2.60984 140.47239 1502 ft 155 kts 303°
2026-04-19 09:37 -2.60397 140.46330 1532 ft 156 kts 302°
2026-04-19 09:37 -2.59749 140.45487 1545 ft 155 kts 323°
2026-04-19 09:37 -2.58767 140.45114 1445 ft 151 kts
2026-04-19 09:38 -2.57798 140.45417 1330 ft 144 kts 38°
2026-04-19 09:38 -2.57014 140.46003 1262 ft 143 kts 42°
2026-04-19 09:38 -2.56263 140.46653 1087 ft 141 kts 47°
2026-04-19 09:38 -2.55797 140.47475 914 ft 136 kts 85°
2026-04-19 09:39 -2.55841 140.48421 808 ft 136 kts 102°
2026-04-19 09:39 -2.56076 140.49320 750 ft 135 kts 111°
2026-04-19 09:39 -2.56547 140.50119 509 ft 133 kts 129°
2026-04-19 09:39 -2.57113 140.50852 329 ft 131 kts 126°
2026-04-19 09:40 -2.57607 140.51522 302 ft 97 kts 126°
2026-04-19 09:40 -2.57833 140.51826 300 ft 18 kts 127°
2026-04-19 09:40 -2.57828 140.51906 300 ft 13 kts 33°
2026-04-19 09:40 -2.57770 140.51948 299 ft 10 kts 37°
2026-04-19 09:41 -2.57718 140.51937 300 ft 10 kts 313°
2026-04-19 09:41 -2.57666 140.51868 302 ft 14 kts 306°
2026-04-19 09:41 -2.57604 140.51785 298 ft 16 kts 307°
2026-04-19 09:41 -2.57537 140.51695 301 ft 17 kts 307°
2026-04-19 09:42 -2.57473 140.51610 298 ft 16 kts 307°
2026-04-19 09:42 -2.57405 140.51520 301 ft 17 kts 307°
2026-04-19 09:42 -2.57335 140.51426 303 ft 16 kts 307°
2026-04-19 09:42 -2.57264 140.51330 298 ft 17 kts 306°
2026-04-19 09:43 -2.57209 140.51256 299 ft 8 kts 306°
2026-04-19 09:43 -2.57168 140.51245 298 ft 7 kts 26°
2026-04-19 09:43 -2.57136 140.51269 298 ft 4 kts 37°
2026-04-19 09:43 -2.57128 140.51274 301 ft 0 kts 36°